Regional Weather Roundup
Issued by NWS

Home | Current Version | Previous Version | Graphics & Text | Print | Product List | Glossary On
Versions: 1 2 3 4 5 6 7 8 9 10 11 12 13 14 15 16 17 18 19 20 21 22 23 24 25 26 27 28 29 30 31 32 33 34 35 36 37 38 39 40 41 42 43 44 45 46 47 48 49 50
000
ASUS45 KCYS 290210
RWRWY

WYOMING REGIONAL WEATHER ROUNDUP
NATIONAL WEATHER SERVICE CHEYENNE WY
800 PM MDT THU MAY 28 2015

NOTE:  "FAIR" INDICATES FEW OR NO CLOUDS BELOW 12,000 FEET
WITH NO SIGNIFICANT WEATHER AND/OR OBSTRUCTIONS TO VISIBILITY.

WYZ001-290300-
YELLOWSTONE NATIONAL PARK

CITY           SKY/WX    TMP DP  RH WIND       PRES   REMARKS
LK YELLOWSTONE   N/A     44  40  85 CALM      30.26R
W YELLOWSTONE  NOT AVBL

$$
WYZ002>013-054>058-071-098>099-290300-
NORTHERN WYOMING

CITY           SKY/WX    TMP DP  RH WIND       PRES   REMARKS
JACKSON        LGT RAIN  45  43  93 W8        30.23R
CODY           CLOUDY    54  45  71 N6        30.16R
GREYBULL       CLOUDY    59  46  62 NW23G35   30.06R
WORLAND        FAIR      59  47  64 NW17      30.07R
SHERIDAN       CLOUDY    57  49  74 W8        30.09R
BUFFALO        FAIR      53  44  71 NW14G24   30.11R
GILLETTE       FAIR      54  49  83 NW10      30.05R
HULETT         FAIR      55  52  88 W5        30.04R
NEWCASTLE      FAIR      55  46  71 N14       30.00F

$$
WYZ014>020-022>026-101>103-290300-
CENTRAL WYOMING

CITY           SKY/WX    TMP DP  RH WIND       PRES   REMARKS
BIG PINEY      MOCLDY    50  40  68 N8        30.20R
PINEDALE       FAIR      46  41  81 W12       30.20S
DUBOIS         MOCLDY    46  34  61 NW12G20   30.18R
LANDER         LGT RAIN  50  42  74 W13G21    30.13R
RIVERTON       CLOUDY    53  42  66 W8        30.12S
CASPER         CLOUDY    57  40  52 N3        30.10R
DOUGLAS        MOCLDY    57  44  62 NW9       30.07R

$$
WYZ021-027>030-104>119-290300-
SOUTHERN WYOMING

CITY           SKY/WX    TMP DP  RH WIND       PRES   REMARKS
EVANSTON       FAIR      52  37  56 W6        30.22S
KEMMERER       FAIR      46  37  71 NW7       30.23R
FORT BRIDGER   CLEAR     50  41  71 W9        30.25R
ROCK SPRINGS   FAIR      48  40  73 SW12      30.19S
DIXON          FAIR      49  40  68 SW5       30.22R
RAWLINS        FAIR      51  40  65 SW13      30.16R
SARATOGA       FAIR      46  39  76 W9        30.18F
LARAMIE        FAIR      50  33  52 NW7       30.14R
CHEYENNE       MOCLDY    61  36  39 NW14G22   30.08R
TORRINGTON     TSTM      59  49  69 NW14      30.01R
PINE BLUFFS    FAIR      64  41  42 NW15G24   30.02R

$$


USA.gov is the U.S. government's official web portal to all federal, state and local government web resources and services.